This demonstration page uses our WeatherBlox Daily Observations layout. Learn more.

Left ArrowRight Arrow

34.74481, -87.66753

Hourly Observations for March 17, 2018

Temp ( °F °C ) Dew Point ( °F °C ) Humidity (%) Winds ( mph kmh ) Pressure ( in mb ) Visibility ( mi km ) Precip ( " mm )
12:53 am 00:53 Cloudy 61 16.1 56 13.3 84 84 SSW 9 15 29.95 1014 10 16 0.00 0.03
1:34 am 01:34 Cloudy with Light Rain 61 16.1 57 13.9 87 87 S 8 13 29.91 1013 7 11 0.00 0.03
1:53 am 01:53 Cloudy with Mist and Fog 61 16.1 57 13.9 87 87 S 10 17 29.92 1013 6 10 0.00 0.03
2:53 am 02:53 Cloudy 61 16.1 58 14.4 90 90 SSW 8 13 29.91 1013 10 16 0.00 0.00
3:53 am 03:53 Cloudy 62 16.7 58 14.4 86 86 S 10 17 29.88 1012 10 16 0.00 0.00
4:38 am 04:38 Cloudy with Nearby Thunderstorms 62 16.7 59 15 90 90 SSW 9 15 29.85 1011 7 11 0.00 0.03
4:53 am 04:53 Cloudy with Nearby Thunderstorms 62 16.7 59 15 90 90 SW 12 19 29.88 1012 10 16 0.01 0.25
5:02 am 05:02 Cloudy with Mist and Fog 62 16.7 59 15 90 90 SW 10 17 29.88 1012 6 10 0.00 0.00
5:32 am 05:32 Cloudy with Nearby Thunderstorms 62 16.7 59 15 90 90 SW 7 11 29.85 1011 8 13 0.00 0.00
5:43 am 05:43 Cloudy with Thunderstorms 62 16.7 59 15 90 90 SW 9 15 29.88 1012 8 13 0.00 0.00
5:53 am 05:53 Cloudy with Nearby Thunderstorms 62 16.7 59 15 90 90 WSW 6 9 29.89 1012 10 16 0.00 0.00
6:17 am 06:17 Cloudy 62 16.7 59 15 90 90 Calm 29.88 1012 10 16 0.00 0.00
6:24 am 06:24 Cloudy with Nearby Thunderstorms 62 16.7 59 15 90 90 Calm 29.88 1012 10 16 0.00 0.00
6:38 am 06:38 Cloudy 62 16.7 59 15 90 90 N 3 6 29.88 1012 10 16 0.00 0.00
6:53 am 06:53 Cloudy 61 16.1 59 15 93 93 SE 3 6 29.91 1013 10 16 0.00 0.00
7:37 am 07:37 Cloudy 61 16.1 59 15 93 93 S 3 6 29.88 1012 8 13 0.00 0.00
7:53 am 07:53 Cloudy 62 16.7 59 15 90 90 S 6 9 29.91 1013 9 14 0.00 0.00
8:16 am 08:16 Cloudy 63 17.2 59 15 87 87 SSE 3 6 29.91 1013 10 16 0.00 0.00
8:53 am 08:53 Cloudy 65 18.3 61 16.1 87 87 SSW 7 11 29.92 1013 10 16 0.00 0.00
9:19 am 09:19 Cloudy 66 18.9 61 16.1 84 84 WSW 7 11 29.91 1013 10 16 0.00 0.00
9:41 am 09:41 Cloudy 67 19.4 61 16.1 81 81 WSW 9 15 29.91 1013 10 16 0.00 0.00
9:53 am 09:53 Cloudy 67 19.4 61 16.1 81 81 WSW 8 13 29.92 1013 10 16 0.00 0.00
10:53 am 10:53 Mostly Cloudy 71 21.7 60 15.6 68 68 WSW 12 19 29.91 1013 10 16 0.00 0.00
11:12 am 11:12 Partly Cloudy 71 21.7 60 15.6 68 68 WSW 15 24 29.88 1012 10 16 0.00 0.00
11:53 am 11:53 Partly Cloudy 74 23.3 60 15.6 62 62 SW 18 30 29.90 1012 10 16 0.00 0.00
12:53 pm 12:53 Partly Cloudy 77 25 59 15 54 54 SSW 17 28 29.87 1012 10 16 0.00 0.00
1:53 pm 13:53 Mostly Sunny 80 26.7 57 13.9 45 45 W 18 30 29.84 1011 10 16 0.00 0.00
2:53 pm 14:53 Mostly Sunny 80 26.7 55 12.8 42 42 W 21 33 29.82 1010 10 16 0.00 0.00
3:53 pm 15:53 Mostly Sunny 79 26.1 54 12.2 42 42 W 22 35 29.82 1010 10 16 0.00 0.00
4:53 pm 16:53 Mostly Sunny 78 25.6 54 12.2 43 43 WSW 16 26 29.81 1010 10 16 0.00 0.00
5:53 pm 17:53 Mostly Sunny 77 25 52 11.1 42 42 W 20 31 29.81 1010 10 16 0.00 0.00
6:53 pm 18:53 Sunny 74 23.3 48 8.9 40 40 W 15 24 29.82 1010 10 16 0.00 0.00
7:53 pm 19:53 Clear 69 20.6 47 8.3 45 45 W 9 15 29.84 1011 10 16 0.00 0.00
8:53 pm 20:53 Clear 66 18.9 47 8.3 50 50 W 7 11 29.85 1011 10 16 0.00 0.00
9:53 pm 21:53 Clear 66 18.9 47 8.3 50 50 NNW 7 11 29.88 1012 10 16 0.00 0.00
10:53 pm 22:53 Clear 63 17.2 44 6.7 50 50 NW 5 7 29.90 1013 10 16 0.00 0.00
11:53 pm 23:53 Clear 61 16.1 44 6.7 54 54 NNW 3 6 29.91 1013 10 16 0.00 0.00

Powered by AerisWeather